COSMOS 689

Satellite information

Favourite Embed

Satellite Type and Status

PAYLOADIN ORBIT

Key statistics

Satellite COSMOS 689 at a glance.

Uptime

18586

Days in orbit

Revolutions

≈ 13.7

Per day

Orbit

LEO

Low Earth Orbit

Inclination

82.9

Latest

Satellite identification and parameters

Extended collection of information and parameters for COSMOS 689.

Object identification

Identified? True

Debris? False

Object name: COSMOS 689

International designator: 1974-079A

Object number (NORAD): 7476

Object ID (CCSDS): 7476

Country: COMMONWEALTH OF INDEPENDENT STATES (CIS)

Current information (Y/N): Y

RCS size: LARGE

Orbital parameters

Period: 104.93 minutes

Inclination: 82.9441 deg

SMA: 7369.321 km

Apoapsis: 1013.221 km

Periapsis: 969.151 km

RAAN: 26.4289 deg

Eccentricy: 0.00299009

Argument of periapsis: 189.9659 deg

Mean anomaly: 290.2835 deg

Mean motion: 13.72339367 rev/day

Mean motion (dot): 0.00000064 rev/day2

B* drag term: 0.000053555656 1/REarth

Two-line elements (TLE)

Creation date: Sept. 6, 2025, 2:09 a.m.

Reference frame: TEME

Reference center: EARTH

Epoch: Sept. 5, 2025, 10:29 p.m. UTC

TLE line 0: 0 COSMOS 689

TLE line 1: 1 07476U 74079A 25248.93743131 .00000064 00000-0 53556-4 0 9991

TLE line 2: 2 07476 82.9441 26.4289 0029901 189.9659 290.2835 13.72339367547383

Live tracking on map

Real-time ground track for satellite COSMOS 689.

In-orbit conjunctions

There are no conjunctions computed for COSMOS 689, at the moment. Check back to stay up to date, as we update our databases every day.

Go to all conjunctions

Associated space launch

High resolution optical reconnaissance satellite of the Vostok-based Zenit family.

COSMOS 689 was lifted into orbit during the mission ‘Voskhod | Zenit-4MK 31’, on board a Voskhod space rocket.

The launch took place on Oct. 18, 1974, 3 p.m. from 41/1.

For more information about the launch, click the button.

Launch to space Voskhod | Zenit-4MK 31
Voskhod | Zenit-4MK 31

Agency: N/A

Status: Launch Successful

Launch date: Oct. 18, 1974, 3 p.m. UTC

Rocket: Voskhod

Launch pad: 41/1

Location: Plesetsk Cosmodrome, Russian Federation

...

Latest news about this satellite

There are no fresh news available about this satellite. Check back as we update our databases every day.


Newsletter sign-up

Weekly statistics, charts and insights to help you stay on top of the space industry.